Location: Quebec
(46.8000°N, 71.2500°W)
Time: 18:36:53
(UTC-04:00)

ISS - Pass Details

Date: 07 October 2017
Orbit: 400 x 408 km, 51.6° (Epoch: 24 October)

Event Time Altitude Azimuth Distance (km) Brightness Sun altitude
Rises 20:41:51 0° 295° (WNW) 2,331 1.4 -26.0°
Reaches altitude 10° 20:43:56 10° 297° (WNW) 1,470 0.0 -26.4°
Enters shadow 20:45:23 24° 298° (WNW) 893 -1.4 -26.6°
